{"data":{"norad_id":43253,"intl_designator":"2018-030E","name":"IRIDIUM 145","alt_names":[],"object_type":"PAYLOAD","status":"ACTIVE","operator":null,"country":"US","launch_date":"2018-03-30","launch_site_code":"AFWTR","launch_vehicle":null,"mission":null,"orbit_class":"UNKNOWN","rcs_meters":null,"size_class":null,"mass_kg":null,"dimensions":null,"purposes":["comms"],"wikipedia_slug":null,"has_3d_model":false,"image_url":null,"decayed_at":null,"tle_current":{"epoch":"2026-05-25T04:03:15.411168Z","epoch_age_seconds":67346,"freshness":"FRESH","line1":"1 43253U 18030E   26145.16892837  .00000211  00000+0  68337-4 0  9995","line2":"2 43253  86.3939 300.0333 0001883  87.6059 272.5352 14.34218775426824","mean_motion":14.34218775,"eccentricity":0.0001883,"inclination_deg":86.3939,"raan_deg":300.0333,"arg_perigee_deg":87.6059,"mean_anomaly_deg":272.5352,"bstar":6.8337e-5,"rev_number":42682,"period_min":100.40309226882,"perigee_km":776.31630769092,"apogee_km":779.01118225148,"semimajor_km":7155.8007449712,"source":"CELESTRAK","updated_at":"2026-05-25T13:38:14.808144Z"}}}